Franklin, PA

10:56 AM EDT on September 26, 2017 (GMT -0400)
Venango Regional

Weather History for KFKL - May, 2013

Change the Weather History Date:

Sunday, May 12, 2013

  Actual Average Record
Temperature  
Mean Temperature 40 °F -  
Max Temperature 48 °F 70 °F 92 °F (1936)
Min Temperature 33 °F 42 °F 23 °F (1966)
Degree Days  
Heating Degree Days 24    
Moisture  
Dew Point 31 °F    
Average Humidity 69    
Maximum Humidity 87    
Minimum Humidity 46    
Precipitation  
Precipitation 0.03 in - - ()
Sea Level Pressure  
Sea Level Pressure 29.91 in    
Wind  
Wind Speed 11 mph (West)    
Max Wind Speed 21 mph    
Max Gust Speed 31 mph    
Visibility 10 miles    
Events      
Averages and records for this station are not official NWS values.
T = Trace of Precipitation, MM = Missing Value Source: NWS Daily Summary

Daily Weather History Graph

Daily Weather History Graph

Search for Another Location

Airport or City:

Trip Planner

Search our weather history database for the weather conditions in past years. The results will help you decide how hot, cold, wet, or windy it might be!

Date:

Astronomy

May. 12, 2013 Rise Set
Actual Time 6:03 AM EDT 8:28 PM EDT
Civil Twilight 5:32 AM EDT 9:00 PM EDT
Nautical Twilight 4:53 AM EDT 9:38 PM EDT
Astronomical Twilight 4:10 AM EDT 10:22 PM EDT
Moon 7:56 AM EDT (5/12) 10:54 PM EDT (5/12)
Length of Visible Light 15h 27m
Length of Day
14h 25m
Waxing Crescent, 6% of the Moon is Illuminated
May 12
Waxing Crescent
May 18
First Quarter
May 25
Full
May 31
Last Quarter
Jun 8
New

Hourly Weather History & Observations

Time (EDT) Temp. Windchill Dew Point Humidity Pressure Visibility Wind Dir Wind Speed Gust Speed Precip Events Conditions
12:15 AM 48.2 °F - 44.6 °F 87% 29.80 in 10.0 mi SW 8.1 mph - N/A   Overcast
12:35 AM 48.2 °F - 44.6 °F 87% 29.80 in 9.0 mi SW 8.1 mph - N/A   Overcast
12:55 AM 46.4 °F 40.7 °F 42.8 °F 87% 29.82 in 8.0 mi West 12.7 mph 19.6 mph 0.01 in   Overcast
1:15 AM 44.6 °F 36.9 °F 39.2 °F 81% 29.84 in 7.0 mi WNW 18.4 mph 26.5 mph 0.01 in   Overcast
1:35 AM 42.8 °F 37.0 °F 39.2 °F 87% 29.84 in 10.0 mi WNW 10.4 mph 17.3 mph 0.01 in   Overcast
1:55 AM 42.8 °F 39.3 °F 37.4 °F 81% 29.85 in 10.0 mi WNW 5.8 mph 16.1 mph 0.01 in   Overcast
2:15 AM 41.0 °F 34.7 °F 35.6 °F 81% 29.85 in 10.0 mi WNW 10.4 mph 21.9 mph N/A   Overcast
2:35 AM 39.2 °F 31.2 °F 33.8 °F 81% 29.85 in 10.0 mi WNW 13.8 mph 21.9 mph N/A   Overcast
2:55 AM 39.2 °F 33.0 °F 33.8 °F 81% 29.86 in 10.0 mi WNW 9.2 mph 16.1 mph N/A   Overcast
3:15 AM 37.4 °F 29.3 °F 33.8 °F 87% 29.86 in 10.0 mi WNW 12.7 mph - N/A   Overcast
3:35 AM 37.4 °F 30.3 °F 30.2 °F 75% 29.87 in 10.0 mi WNW 10.4 mph 16.1 mph N/A   Mostly Cloudy
3:55 AM 37.4 °F 31.4 °F 30.2 °F 75% 29.87 in 10.0 mi WNW 8.1 mph - N/A   Overcast
4:15 AM 37.4 °F 32.8 °F 30.2 °F 75% 29.87 in 10.0 mi NW 5.8 mph - N/A   Mostly Cloudy
4:35 AM 35.6 °F 29.2 °F 30.2 °F 81% 29.87 in 10.0 mi WNW 8.1 mph - N/A   Mostly Cloudy
4:55 AM 35.6 °F 29.9 °F 30.2 °F 81% 29.87 in 10.0 mi West 6.9 mph - N/A   Mostly Cloudy
5:35 AM 35.6 °F 29.9 °F 30.2 °F 81% 29.87 in 10.0 mi WSW 6.9 mph - N/A   Partly Cloudy
5:55 AM 33.8 °F 29.6 °F 30.2 °F 87% 29.86 in 10.0 mi WSW 4.6 mph - N/A   Clear
6:15 AM 33.8 °F 29.6 °F 30.2 °F 87% 29.87 in 10.0 mi SW 4.6 mph - N/A   Clear
6:35 AM 33.8 °F 29.6 °F 30.2 °F 87% 29.87 in 10.0 mi SSW 4.6 mph - N/A   Mostly Cloudy
6:55 AM 33.8 °F 27.7 °F 30.2 °F 87% 29.88 in 10.0 mi SW 6.9 mph - N/A   Overcast
7:15 AM 35.6 °F 29.2 °F 32.0 °F 87% 29.88 in 10.0 mi SW 8.1 mph - N/A   Overcast
7:35 AM 35.6 °F 29.9 °F 32.0 °F 87% 29.88 in 10.0 mi SW 6.9 mph - N/A   Overcast
7:55 AM 35.6 °F 31.7 °F 32.0 °F 87% 29.89 in 10.0 mi SW 4.6 mph - N/A   Overcast
8:15 AM 37.4 °F 31.4 °F 33.8 °F 87% 29.88 in 10.0 mi SW 8.1 mph - N/A   Overcast
8:35 AM 39.2 °F 32.0 °F 33.8 °F 81% 29.88 in 10.0 mi SW 11.5 mph - N/A   Mostly Cloudy
8:55 AM 41.0 °F 34.3 °F 32.0 °F 70% 29.89 in 10.0 mi WSW 11.5 mph 17.3 mph N/A   Overcast
9:15 AM 41.0 °F 33.9 °F 33.8 °F 76% 29.89 in 10.0 mi West 12.7 mph 20.7 mph N/A   Overcast
9:35 AM 41.0 °F 35.2 °F 32.0 °F 70% 29.89 in 10.0 mi WSW 9.2 mph 21.9 mph N/A   Mostly Cloudy
9:55 AM 42.8 °F 36.2 °F 33.8 °F 70% 29.89 in 10.0 mi WSW 12.7 mph 18.4 mph N/A   Overcast
10:15 AM 42.8 °F 36.6 °F 30.2 °F 61% 29.88 in 10.0 mi WSW 11.5 mph 20.7 mph N/A   Mostly Cloudy
10:35 AM 44.6 °F 37.8 °F 32.0 °F 61% 29.88 in 10.0 mi West 15.0 mph 24.2 mph N/A   Overcast
10:55 AM 42.8 °F 35.4 °F 28.4 °F 57% 29.88 in 10.0 mi West 15.0 mph 21.9 mph N/A   Mostly Cloudy
11:15 AM 44.6 °F 38.4 °F 30.2 °F 57% 29.88 in 10.0 mi WSW 12.7 mph 18.4 mph N/A   Overcast
11:35 AM 44.6 °F 37.4 °F 30.2 °F 57% 29.89 in 10.0 mi West 16.1 mph 23.0 mph N/A   Overcast
11:55 AM 41.0 °F 35.2 °F 32.0 °F 70% 29.90 in 10.0 mi WNW 9.2 mph 19.6 mph N/A   Overcast
12:15 PM 39.2 °F 31.6 °F 32.0 °F 75% 29.91 in 10.0 mi West 12.7 mph 20.7 mph N/A   Mostly Cloudy
12:35 PM 39.2 °F 31.2 °F 30.2 °F 70% 29.91 in 10.0 mi West 13.8 mph 24.2 mph N/A   Overcast
12:55 PM 41.0 °F 32.5 °F 30.2 °F 65% 29.91 in 10.0 mi West 17.3 mph 23.0 mph N/A   Overcast
1:15 PM 46.4 °F 38.7 °F 32.0 °F 57% 29.90 in 10.0 mi WSW 20.7 mph 28.8 mph N/A   Mostly Cloudy
1:35 PM 44.6 °F 36.4 °F 28.4 °F 53% 29.91 in 10.0 mi WSW 20.7 mph 31.1 mph N/A   Mostly Cloudy
1:55 PM 46.4 °F 39.2 °F 30.2 °F 53% 29.91 in 10.0 mi West 18.4 mph 25.3 mph N/A   Mostly Cloudy
2:15 PM 39.2 °F 32.5 °F 30.2 °F 70% 29.92 in 5.0 mi SW 10.4 mph 28.8 mph N/A   Mostly Cloudy
2:35 PM 44.6 °F 37.4 °F 35.6 °F 71% 29.92 in 10.0 mi West 16.1 mph 24.2 mph N/A   Mostly Cloudy
2:55 PM 39.2 °F 32.0 °F 32.0 °F 75% 29.93 in 9.0 mi West 11.5 mph 24.2 mph N/A   Mostly Cloudy
3:15 PM 46.4 °F 39.5 °F 32.0 °F 57% 29.92 in 10.0 mi WSW 17.3 mph 26.5 mph N/A   Mostly Cloudy
3:35 PM 46.4 °F 39.2 °F 32.0 °F 57% 29.92 in 10.0 mi WSW 18.4 mph 31.1 mph N/A   Mostly Cloudy
3:55 PM 46.4 °F 40.1 °F 28.4 °F 50% 29.92 in 10.0 mi West 15.0 mph 26.5 mph N/A   Mostly Cloudy
4:15 PM 46.4 °F 39.5 °F 28.4 °F 50% 29.93 in 10.0 mi West 17.3 mph 27.6 mph N/A   Mostly Cloudy
4:35 PM 48.2 °F - 30.2 °F 50% 29.92 in 10.0 mi West 17.3 mph 24.2 mph N/A   Mostly Cloudy
4:55 PM 44.6 °F 37.4 °F 26.6 °F 49% 29.94 in 10.0 mi WNW 16.1 mph 25.3 mph N/A   Overcast
5:15 PM 44.6 °F 38.1 °F 35.6 °F 71% 29.93 in 10.0 mi WSW 13.8 mph 19.6 mph N/A   Mostly Cloudy
5:35 PM 44.6 °F 36.9 °F 30.2 °F 57% 29.95 in 10.0 mi WNW 18.4 mph 29.9 mph N/A   Mostly Cloudy
5:55 PM 42.8 °F 36.6 °F 33.8 °F 70% 29.94 in 10.0 mi West 11.5 mph 20.7 mph 0.01 in   Scattered Clouds
6:15 PM 44.6 °F 38.1 °F 32.0 °F 61% 29.94 in 10.0 mi West 13.8 mph 20.7 mph N/A   Mostly Cloudy
6:35 PM 44.6 °F 36.9 °F 28.4 °F 53% 29.94 in 10.0 mi West 18.4 mph 25.3 mph N/A   Partly Cloudy
6:55 PM 44.6 °F 37.8 °F 26.6 °F 49% 29.95 in 10.0 mi West 15.0 mph 24.2 mph N/A   Mostly Cloudy
7:15 PM 44.6 °F 38.8 °F 26.6 °F 49% 29.95 in 10.0 mi West 11.5 mph 16.1 mph N/A   Mostly Cloudy
7:35 PM 44.6 °F 39.2 °F 24.8 °F 46% 29.95 in 10.0 mi WNW 10.4 mph 20.7 mph N/A   Overcast
7:55 PM 42.8 °F 35.8 °F 24.8 °F 49% 29.96 in 10.0 mi West 13.8 mph 18.4 mph N/A   Overcast
8:15 PM 42.8 °F 37.0 °F 26.6 °F 53% 29.97 in 10.0 mi West 10.4 mph 18.4 mph N/A   Overcast
8:35 PM 42.8 °F 38.6 °F 26.6 °F 53% 29.97 in 10.0 mi WSW 6.9 mph 18.4 mph N/A   Overcast
8:55 PM 42.8 °F 37.5 °F 28.4 °F 57% 29.98 in 10.0 mi WSW 9.2 mph - N/A   Overcast
9:15 PM 42.8 °F 39.3 °F 28.4 °F 57% 29.98 in 10.0 mi West 5.8 mph - N/A   Overcast
9:35 PM 41.0 °F 36.4 °F 28.4 °F 61% 29.99 in 10.0 mi SW 6.9 mph - N/A   Overcast
9:55 PM 39.2 °F 34.2 °F 30.2 °F 70% 30.00 in 10.0 mi West 6.9 mph - N/A   Overcast
10:15 PM 39.2 °F 33.6 °F 30.2 °F 70% 30.01 in 10.0 mi WSW 8.1 mph - N/A   Overcast
10:35 PM 39.2 °F 32.0 °F 30.2 °F 70% 30.01 in 10.0 mi West 11.5 mph 16.1 mph N/A   Overcast
10:55 PM 39.2 °F 32.0 °F 30.2 °F 70% 30.02 in 10.0 mi WNW 11.5 mph 18.4 mph N/A   Overcast
11:15 PM 37.4 °F 32.1 °F 30.2 °F 75% 30.03 in 10.0 mi West 6.9 mph - N/A   Overcast
11:35 PM 37.4 °F 30.8 °F 30.2 °F 75% 30.03 in 10.0 mi West 9.2 mph 17.3 mph N/A   Overcast
11:55 PM 37.4 °F 31.4 °F 28.4 °F 70% 30.03 in 10.0 mi WNW 8.1 mph - N/A   Overcast